CAPE
2535 2484 2751 2146 2313 2313 2219 2362 2588 2622 2797 3003 3111 2952 2468 1821 1227 909 484 1 0 0 0 0 0 0 0 0 0 0 0 0 0 0 0 0 2 0 0 0 0 0 0
2970 3388 2431 2006 2320 2298 2586 2435 2508 2661 2952 3112 3353 2681 1962 1593 943 745 194 0 0 0 0 0 0 0 0 0 0 0 0 0 0 2 1 0 0 0 0 0 0 0 0
3248 2376 2277 2149 2130 2286 2276 2862 2900 2760 3009 3303 3160 2309 1932 1183 663 305 0 0 0 0 0 0 0 0 1 0 0 0 0 0 0 0 0 0 0 0 0 0 4 9 0
2477 2151 2905 2245 2391 2068 2973 3503 2977 3306 3221 3321 2728 2025 1316 756 305 28 0 0 0 0 0 0 0 0 0 0 0 0 0 0 0 0 0 0 0 0 0 0 0 0 0
2952 2884 3287 3456 3409 3346 3506 3674 3718 3366 3246 3100 2369 1459 818 35 46 0 0 0 0 0 0 0 0 0 0 0 0 0 0 0 0 0 0 0 0 0 0 0 0 0 2
3155 3307 3683 4026 3935 3988 4177 4278 4243 3714 3139 2743 1778 886 24 14 0 0 0 0 0 0 0 0 0 0 0 0 0 0 0 0 0 0 0 0 2 0 0 0 0 0 0
3477 3717 3985 4276 4143 4282 4195 4297 4125 3877 2399 2654 1113 257 15 0 0 0 0 0 0 0 0 0 0 0 0 0 0 0 0 0 0 0 0 0 0 3 0 0 2 0 0
3712 3926 4110 4304 4212 4348 4375 4386 4739 3103 2174 1414 696 120 1 0 0 0 0 0 0 0 0 0 0 0 0 0 0 0 0 0 0 0 0 0 0 0 0 0 9 16 21
3852 4059 4125 4316 4310 4418 4502 4690 4170 2153 1401 858 123 2 3 0 0 0 0 0 0 0 0 0 0 0 0 0 0 0 0 0 0 0 0 0 0 0 0 0 0 0 0
3832 4106 4322 4437 4528 4624 4716 4856 3459 2085 1180 384 48 2 0 0 0 0 0 0 0 0 0 0 0 0 0 0 0 0 0 0 0 0 0 7 0 1 1 2 0 0 0
4006 4152 4455 4571 4778 4888 4932 4558 2401 1638 994 147 8 0 0 0 0 0 0 0 0 0 0 0 0 0 0 0 0 0 0 0 0 0 0 0 0 0 0 0 15 4 3
4234 4367 4603 4818 4250 4320 4872 2939 2178 1593 358 68 7 1 0 0 0 0 0 0 0 0 0 0 0 0 0 0 0 0 0 0 0 0 0 0 0 0 0 0 23 38 2
4419 4445 4650 4740 4440 4590 3545 2152 1397 914 108 4 2 0 0 0 0 0 0 0 0 0 0 0 0 0 0 0 0 0 0 0 0 0 0 0 0 0 0 1 0 74 49
4451 4550 4622 4611 4478 4109 2193 1537 1132 277 141 43 1 0 0 0 0 0 0 0 0 0 0 0 0 0 0 0 0 0 0 0 0 0 0 0 0 0 0 0 0 0 0
4340 4408 4379 3476 3716 2379 1357 1114 1055 456 185 162 74 23 1 0 0 0 0 0 0 0 0 0 0 0 0 0 0 0 0 0 0 0 0 0 0 0 0 0 0 0 1
4174 3717 3402 3164 2745 1764 1548 144 0 214 7 10 5 56 3 0 0 0 0 0 0 0 0 0 0 0 0 0 0 0 0 0 0 0 0 0 0 0 0 0 0 0 0
3808 3524 2960 2344 2123 1846 1641 798 0 0 0 0 0 0 0 0 0 0 0 0 0 0 0 0 0 0 0 0 0 0 0 0 0 0 0 0 0 0 0 0 0 0 0
3526 2455 2522 2204 1760 1780 1445 915 318 67 12 0 0 0 0 0 0 0 0 0 0 0 0 0 0 0 0 0 0 0 0 0 0 0 0 0 0 0 0 0 0 1 1
2690 2278 2143 1765 1555 1063 1015 685 346 106 46 0 0 0 0 0 0 0 0 0 0 0 0 0 0 0 0 0 0 0 0 0 0 0 0 0 0 0 0 0 0 0 0
2420 1798 1771 2093 1152 912 730 649 361 249 187 1 0 0 0 0 0 0 0 0 0 0 0 0 0 0 0 0 0 0 0 0 0 0 0 0 0 0 0 0 0 0 3
2174 1873 1712 1896 1213 1257 1040 885 607 374 56 0 0 0 0 0 0 0 0 0 0 0 0 0 0 0 0 0 0 0 0 0 0 0 0 0 0 0 0 0 0 0 4
1944 1740 1659 1652 1314 1319 975 634 255 80 10 0 0 0 0 0 0 0 0 0 0 0 0 0 0 0 0 0 0 0 0 0 0 0 0 0 0 0 0 0 0 1 7
1746 1663 1557 1327 1270 717 652 473 245 95 0 0 0 0 0 0 0 0 0 0 0 0 0 0 0 0 0 0 0 0 0 0 0 0 0 0 0 0 0 0 0 3 9
1577 1437 1404 1248 1049 700 601 331 220 4 0 0 0 0 0 0 0 0 0 0 0 0 0 0 0 0 0 0 0 0 0 0 0 0 0 0 0 0 0 0 0 5 12
1361 1391 1528 1180 734 613 495 221 167 2 0 0 0 0 0 0 0 0 0 0 0 0 0 0 0 0 0 0 0 0 0 0 0 0 0 0 0 0 0 0 0 3 12
1309 1618 1674 1136 661 1211 504 262 35 0 0 0 0 0 0 0 0 0 0 0 0 0 0 0 0 0 0 0 0 0 0 0 0 0 0 0 0 0 0 0 0 4 12
CIN
-49 -69 -61 -125 -103 -102 -104 -90 -77 -60 -48 -24 -9 -8 -8 -45 -103 -135 -236 -125 -0 -0 -0 -0 -0 -0 -0 -0 -0 -0 -0 -0 -0 -0 -0 -0 -0 -0 -0 -0 -0 -0 -0
-48 -34 -115 -154 -119 -119 -97 -104 -100 -72 -40 -23 -9 -17 -47 -74 -166 -184 -347 -0 -0 -0 -0 -0 -0 -0 -0 -0 -0 -0 -0 -0 -0 -0 -0 -0 -0 -0 -0 -0 -0 -0 -0
-55 -140 -151 -167 -163 -139 -131 -100 -94 -77 -43 -22 -22 -49 -69 -142 -240 -346 -0 -0 -0 -0 -0 -0 -0 -0 -0 -0 -0 -0 -0 -0 -0 -0 -0 -0 -0 -0 -0 -0 -33 -149 -0
-139 -181 -135 -184 -165 -162 -98 -79 -98 -52 -37 -23 -50 -94 -172 -216 -356 -359 -0 -0 -0 -0 -0 -0 -0 -0 -0 -0 -0 -0 -0 -0 -0 -0 -0 -0 -0 -0 -0 -0 -0 -0 -0
-139 -155 -143 -131 -114 -102 -86 -72 -46 -50 -38 -43 -94 -203 -290 -122 -473 -0 -0 -0 -0 -0 -0 -0 -0 -0 -0 -0 -0 -0 -0 -0 -0 -0 -0 -0 -0 -0 -0 -0 -0 -0 -10
-153 -163 -129 -109 -100 -84 -58 -42 -22 -27 -29 -60 -146 -333 -662 -602 -0 -0 -0 -0 -0 -0 -0 -0 -0 -0 -0 -0 -0 -0 -0 -0 -0 -0 -0 -0 -0 -0 -0 -0 -0 -0 -0
-151 -149 -128 -105 -96 -87 -77 -43 -21 -39 -291 -92 -211 -437 -742 -0 -0 -0 -0 -0 -0 -0 -0 -0 -0 -0 -0 -0 -0 -0 -0 -0 -0 -0 -0 -0 -0 -0 -0 -0 -0 -0 -0
-146 -145 -146 -115 -121 -88 -73 -60 -20 -101 -187 -275 -352 -602 -170 -0 -0 -0 -0 -0 -0 -0 -0 -0 -0 -0 -0 -0 -0 -0 -0 -0 -0 -0 -0 -0 -0 -0 -0 -0 -0 -3 -21
-153 -172 -170 -141 -124 -109 -92 -58 -71 -242 -324 -405 -668 -72 -593 -0 -0 -0 -0 -0 -0 -0 -0 -0 -0 -0 -0 -0 -0 -0 -0 -0 -0 -0 -0 -0 -0 -0 -0 -0 -0 -0 -0
-169 -197 -167 -145 -145 -128 -84 -48 -137 -265 -383 -543 -802 -0 -0 -0 -0 -0 -0 -0 -0 -0 -0 -0 -0 -0 -0 -0 -0 -0 -0 -0 -0 -0 -0 -8 -0 -1 -12 -56 -0 -0 -0
-208 -202 -187 -177 -151 -99 -58 -60 -268 -337 -429 -721 -435 -0 -0 -0 -0 -0 -0 -0 -0 -0 -0 -0 -0 -0 -0 -0 -0 -0 -0 -0 -0 -0 -0 -0 -0 -0 -0 -0 -0 -0 -0
-219 -204 -171 -121 -177 -135 -63 -243 -309 -357 -672 -880 -0 -0 -0 -0 -0 -0 -0 -0 -0 -0 -0 -0 -0 -0 -0 -0 -0 -0 -0 -0 -0 -0 -0 -0 -0 -0 -0 -0 -0 -3 -0
-224 -227 -184 -139 -158 -96 -221 -388 -472 -557 -900 -0 -0 -0 -0 -0 -0 -0 -0 -0 -0 -0 -0 -0 -0 -0 -0 -0 -0 -0 -0 -0 -0 -0 -0 -0 -0 -0 -0 -0 -0 -2 -2
-244 -211 -174 -149 -136 -157 -422 -520 -540 -813 -856 -923 -111 -0 -0 -0 -0 -0 -0 -0 -0 -0 -0 -0 -0 -0 -0 -0 -0 -0 -0 -0 -0 -0 -0 -0 -0 -0 -0 -0 -0 -0 -0
-273 -239 -223 -272 -218 -420 -612 -622 -565 -752 -833 -789 -811 -804 -64 -0 -0 -0 -0 -0 -0 -0 -0 -0 -0 -0 -0 -0 -0 -0 -0 -0 -0 -0 -0 -0 -0 -0 -0 -0 -0 -0 -0
-286 -316 -324 -314 -380 -535 -525 -696 -0 -822 -282 -281 -264 -702 -142 -0 -0 -0 -0 -0 -0 -0 -0 -0 -0 -0 -0 -0 -0 -0 -0 -0 -0 -0 -0 -0 -0 -0 -0 -0 -0 -0 -0
-306 -306 -354 -427 -485 -510 -492 -678 -0 -0 -0 -0 -0 -0 -0 -0 -0 -0 -0 -0 -0 -0 -0 -0 -0 -0 -0 -0 -0 -0 -0 -0 -0 -0 -0 -0 -0 -0 -0 -0 -0 -0 -0
-283 -420 -406 -461 -565 -498 -532 -641 -772 -943 -1094 -0 -0 -0 -0 -0 -0 -0 -0 -0 -0 -0 -0 -0 -0 -0 -0 -0 -0 -0 -0 -0 -0 -0 -0 -0 -0 -0 -0 -0 -0 -0 -0
-354 -405 -391 -445 -552 -662 -612 -653 -712 -865 -962 -0 -0 -0 -0 -0 -0 -0 -0 -0 -0 -0 -0 -0 -0 -0 -0 -0 -0 -0 -0 -0 -0 -0 -0 -0 -0 -0 -0 -0 -0 -0 -0
-335 -443 -424 -342 -604 -639 -670 -608 -672 -713 -678 -800 -0 -0 -0 -0 -0 -0 -0 -0 -0 -0 -0 -0 -0 -0 -0 -0 -0 -0 -0 -0 -0 -0 -0 -0 -0 -0 -0 -0 -0 -0 -0
-315 -418 -387 -356 -538 -476 -510 -488 -532 -598 -812 -0 -0 -0 -0 -0 -0 -0 -0 -0 -0 -0 -0 -0 -0 -0 -0 -0 -0 -0 -0 -0 -0 -0 -0 -0 -0 -0 -0 -0 -0 -0 -0
-297 -357 -345 -333 -459 -431 -466 -527 -676 -818 -721 -0 -0 -0 -0 -0 -0 -0 -0 -0 -0 -0 -0 -0 -0 -0 -0 -0 -0 -0 -0 -0 -0 -0 -0 -0 -0 -0 -0 -0 -0 -0 -0
-244 -282 -297 -341 -376 -536 -514 -529 -623 -744 -0 -0 -0 -0 -0 -0 -0 -0 -0 -0 -0 -0 -0 -0 -0 -0 -0 -0 -0 -0 -0 -0 -0 -0 -0 -0 -0 -0 -0 -0 -0 -0 -0
-203 -234 -220 -276 -374 -488 -478 -542 -572 -135 -36 -0 -0 -0 -0 -0 -0 -0 -0 -0 -0 -0 -0 -0 -0 -0 -0 -0 -0 -0 -0 -0 -0 -0 -0 -0 -0 -0 -0 -0 -0 -0 -0
-149 -152 -141 -230 -382 -411 -428 -539 -544 -751 -0 -0 -0 -0 -0 -0 -0 -0 -0 -0 -0 -0 -0 -0 -0 -0 -0 -0 -0 -0 -0 -0 -0 -0 -0 -0 -0 -0 -0 -0 -0 -0 -0
-203 -118 -58 -166 -285 -136 -288 -396 -610 -0 -0 -0 -0 -0 -0 -0 -0 -0 -0 -0 -0 -0 -0 -0 -0 -0 -0 -0 -0 -0 -0 -0 -0 -0 -0 -0 -0 -0 -0 -0 -0 -0 -0
Wind_Speed
15 14 13 14 13 13 12 11 11 9 8 7 4 6 5 6 5 2 1 2 2 2 1 2 3 3 6 5 5 5 6 7 9 8 9 9 9 7 8 9 11 10 10
14 13 14 14 14 14 12 12 11 10 9 9 5 7 7 6 5 4 4 2 2 1 2 2 4 5 5 1 6 5 6 6 7 10 8 10 7 8 7 10 7 9 8
15 16 16 16 15 14 14 12 12 11 10 7 8 8 8 7 6 4 2 2 2 2 2 1 3 4 4 6 6 7 7 7 8 8 10 9 8 6 10 9 9 10 9
17 17 16 16 16 15 12 12 12 11 11 8 8 9 9 7 6 5 4 3 3 4 2 2 3 4 4 6 7 7 7 8 8 9 9 9 8 8 9 9 10 9 10
16 16 16 15 14 13 13 12 11 11 11 9 10 10 9 8 7 7 6 5 4 4 3 1 4 3 1 2 5 7 7 7 8 9 9 9 9 10 10 11 11 11 10
17 17 15 15 14 13 12 12 11 11 7 9 10 11 10 7 9 6 2 6 5 4 3 3 4 9 6 11 7 7 6 6 7 8 9 9 9 10 10 11 11 12 10
16 16 15 15 14 14 13 12 13 13 20 15 12 11 11 7 6 4 3 5 5 4 3 2 5 6 3 7 8 10 13 17 15 7 9 9 11 11 11 11 11 11 12
17 17 16 15 15 14 14 13 13 12 12 11 14 12 11 8 10 7 6 6 4 4 3 2 3 3 7 6 9 9 8 9 6 5 9 10 10 9 10 10 12 13 11
19 18 17 17 16 15 16 15 13 12 13 13 13 13 12 10 11 9 8 7 7 5 4 1 3 2 5 5 8 8 9 9 5 6 10 15 18 18 17 8 10 11 12
20 19 17 17 17 17 16 16 13 13 13 12 13 13 11 12 11 10 11 7 7 6 5 7 4 2 2 3 7 8 8 9 11 11 12 10 14 14 22 10 9 11 11
17 17 18 18 17 15 14 13 15 14 13 13 13 12 13 12 13 11 8 8 6 6 5 7 8 8 4 3 6 7 8 10 12 12 8 7 7 8 7 6 8 9 11
16 17 16 16 14 13 15 15 15 13 14 13 14 11 10 10 12 11 7 6 7 5 4 3 9 9 6 6 7 5 10 10 10 8 8 8 8 9 9 9 9 8 10
17 17 16 16 15 14 16 16 13 14 14 14 13 12 11 10 9 11 8 6 4 5 1 9 10 7 8 9 13 13 11 7 7 8 8 8 8 8 9 9 10 10 10
17 17 16 16 15 14 13 13 14 14 14 14 13 12 12 12 11 11 9 8 5 6 6 5 4 4 6 7 5 10 7 5 6 7 8 8 8 9 10 10 10 10 11
18 17 17 15 16 14 12 13 14 15 14 14 14 13 13 12 13 13 12 11 10 7 9 7 7 8 4 4 3 3 4 4 6 6 7 8 9 9 8 10 10 11 11
18 16 15 15 14 12 14 9 13 10 10 8 14 10 11 9 19 16 14 13 11 11 5 6 6 4 3 3 3 4 3 2 5 7 7 8 9 9 10 10 10 10 11
16 16 15 15 15 15 14 14 10 8 17 13 9 7 14 16 21 18 14 12 8 8 6 7 4 3 3 2 3 3 4 4 5 6 7 8 8 9 10 10 10 10 11
17 14 14 14 16 15 14 13 13 14 14 8 6 8 18 17 17 17 14 11 5 5 8 6 5 4 3 2 3 3 3 4 5 6 7 7 8 9 10 10 10 11 12
16 15 15 14 14 14 13 14 13 14 14 13 11 8 10 14 13 13 14 10 9 9 9 6 4 4 3 2 1 2 2 4 4 6 6 7 8 9 9 10 10 11 11
17 18 15 14 14 15 14 14 14 14 15 14 13 13 12 12 11 12 10 10 9 8 7 6 6 4 2 2 2 2 4 3 3 5 6 7 7 8 9 10 10 12 12
13 14 15 13 16 15 14 14 14 14 14 12 12 14 19 15 13 13 12 11 9 7 6 6 6 6 4 4 3 3 3 3 3 4 5 6 7 8 8 9 10 12 11
13 15 14 14 14 15 14 14 14 15 14 14 11 14 21 13 13 12 12 11 9 7 6 6 5 5 5 3 3 2 2 2 3 4 5 6 6 8 8 10 10 11 11
12 14 14 12 12 13 14 14 15 15 14 13 12 15 16 14 12 12 12 11 9 8 7 7 6 5 5 4 3 2 3 3 3 4 5 6 6 7 8 9 10 10 11
12 14 13 12 12 13 14 14 14 15 14 12 14 15 15 15 13 14 12 10 10 9 8 8 6 8 8 6 4 4 3 6 4 2 6 5 7 8 8 9 10 11 11
11 12 12 11 11 12 12 13 13 15 15 13 14 14 15 15 12 13 12 11 10 10 10 9 7 8 8 5 5 11 8 6 5 9 8 5 5 9 9 8 11 10 11
6 1 4 5 6 7 10 11 12 13 13 12 13 14 15 15 12 13 12 13 11 11 11 8 9 10 10 7 8 9 6 3 3 5 7 10 7 8 9 9 12 9 12
Wind_Direction
200 195 198 201 204 211 220 226 230 232 232 229 229 158 175 180 187 199 61 130 109 100 59 6 0 336 352 357 329 1 325 343 316 324 313 341 309 338 314 324 305 300 309
193 197 193 201 205 208 214 223 223 221 218 220 170 196 187 188 187 206 231 92 183 174 79 338 358 348 329 49 320 21 319 311 322 303 331 311 324 318 347 307 314 317 315
189 196 203 202 206 212 210 216 217 211 212 171 182 195 187 194 184 200 195 181 146 103 70 25 349 346 349 350 331 344 339 341 315 321 301 317 331 348 335 319 342 311 314
189 198 202 203 206 209 209 210 211 204 198 188 185 185 184 194 184 181 180 172 149 122 108 28 11 13 357 355 331 336 1 322 323 310 320 322 325 355 325 334 328 332 332
189 199 201 201 205 207 201 208 203 196 195 183 176 177 174 186 193 185 177 173 172 163 135 239 107 52 175 309 335 357 325 334 334 327 323 321 348 342 331 339 329 320 330
189 198 197 195 200 200 204 197 190 184 179 175 184 183 182 200 91 74 232 176 174 171 186 215 184 189 225 225 239 248 273 295 316 320 318 333 318 323 337 338 316 333 321
194 194 194 192 196 196 198 195 183 162 171 181 195 198 175 146 119 143 265 168 174 175 195 236 278 98 285 355 335 282 251 231 239 286 299 322 315 331 328 315 319 310 301
196 195 192 191 195 192 195 193 176 169 170 165 188 187 170 155 154 181 217 159 170 175 202 211 268 331 57 351 327 308 325 318 296 276 318 306 295 303 290 293 295 291 295
197 197 193 191 190 191 194 190 171 158 167 179 182 177 171 155 165 190 217 169 162 188 181 90 334 358 57 10 317 320 319 316 354 299 247 259 258 260 257 295 313 316 325
199 195 191 189 191 193 189 183 161 164 177 180 179 181 165 167 170 196 225 204 173 194 192 147 148 39 87 350 323 320 328 335 325 307 293 269 244 246 247 236 285 321 319
195 191 191 190 188 184 177 166 159 170 166 177 177 177 176 168 175 203 220 269 187 205 205 186 146 158 178 259 285 312 318 307 297 286 299 327 339 334 339 351 325 314 317
190 190 186 182 180 176 174 159 163 167 161 171 177 175 172 169 160 197 207 231 316 229 222 169 117 159 201 243 271 307 284 290 283 324 326 338 339 337 345 320 297 297 291
185 184 177 172 179 174 159 160 161 165 171 181 182 181 174 178 165 167 181 210 229 248 323 84 126 185 232 239 232 253 277 294 342 322 339 337 336 331 315 325 328 309 312
181 176 171 172 175 154 163 163 170 178 182 187 184 183 178 177 174 177 187 189 206 208 151 168 182 256 288 298 259 219 255 344 321 324 329 329 329 335 331 345 324 336 329
179 175 173 177 177 160 161 172 187 194 190 185 186 184 180 183 183 175 176 184 185 201 172 178 210 214 243 232 310 307 299 342 326 333 325 332 336 336 338 332 338 335 341
182 180 178 176 162 167 170 166 31 170 161 159 165 196 184 151 127 125 117 110 113 141 197 225 219 217 253 301 303 308 304 337 354 315 331 338 336 336 343 328 341 339 342
189 178 172 165 166 179 172 175 150 67 76 66 90 105 118 139 127 126 123 116 117 135 229 218 221 211 243 278 292 305 324 3 297 329 331 338 340 338 328 340 340 352 344
190 167 172 172 163 187 171 171 168 166 164 137 60 118 119 128 129 130 130 134 164 215 248 226 201 201 223 244 280 311 334 321 349 338 329 340 342 335 332 342 344 349 345
189 178 177 176 162 177 170 171 171 171 170 163 139 106 113 111 125 135 159 193 188 201 212 211 196 195 202 204 230 278 320 321 327 314 337 343 343 328 341 344 345 344 333
188 177 181 169 151 177 171 174 169 176 172 168 170 164 150 146 163 172 192 219 208 212 193 192 173 199 170 206 218 271 271 299 335 339 346 342 333 332 342 347 347 347 351
177 170 188 167 162 174 172 174 171 172 173 166 173 165 165 174 175 182 190 202 224 205 191 193 174 168 178 189 217 231 264 306 357 354 346 334 340 338 345 352 353 1 5
178 177 182 179 172 166 171 169 171 173 167 168 168 146 159 199 182 184 189 197 202 201 184 178 192 168 194 161 130 249 270 327 16 360 341 320 2 343 359 0 359 6 15
178 178 182 169 176 160 169 168 173 173 171 165 163 150 175 205 185 182 185 190 182 180 170 176 199 160 144 158 168 223 316 40 11 5 325 336 0 354 4 7 358 14 9
173 184 185 170 173 172 178 167 173 174 175 174 170 158 182 199 190 182 180 175 172 176 167 183 193 171 142 172 152 209 101 34 336 358 300 360 5 348 8 14 357 15 13
179 193 185 171 169 183 173 171 180 180 182 178 173 163 181 197 194 175 180 170 171 173 170 179 172 146 166 188 109 82 82 51 346 343 308 334 30 4 359 19 356 8 19
55 46 170 140 174 207 183 190 185 184 184 187 176 167 183 193 189 174 175 172 174 173 169 172 158 157 153 166 101 91 94 50 339 338 317 303 13 46 347 6 11 7 17